Terminal Aerodrome Forecast
Issued by NWS Paducah, KY

Home | Current Version | Previous Version | Text Only | Print | Product List | Glossary On
Versions: 1 2 3 4 5 6 7 8 9 10 11 12 13 14 15 16
000
FTUS43 KPAH 140500
TAFPAH
TAF
KPAH 140520Z 1406/1506 19010G18KT 5SM -SHRA OVC050
      TEMPO 1406/1409 2SM -TSRA BR BKN030CB
     FM141000 20010G20KT P6SM VCSH OVC050
     FM141400 27010G18KT P6SM OVC025
     FM141900 32015G25KT 4SM -RA BR OVC015=

USA.gov is the U.S. government's official web portal to all federal, state and local government web resources and services.